This is the latest recevied weather packets stored in our database for station/object WP3OF. If no packets are shown the sender has not sent any weather packets the latest 10 day(s).
| Time | Temp. | Humidity | Pressure | Rain* | Wind** | Luminosity | Snow |
|---|---|---|---|---|---|---|---|
| 1777307827 | 27.22° C | 76% | 1018.2 hPa | 0 mm | - | - | - |
| 1777307524 | 27.22° C | 72% | 1018.7 hPa | 0 mm | - | - | - |
| 1777307220 | 27.22° C | 71% | 1018.4 hPa | 0 mm | - | - | - |
| 1777306918 | 27.78° C | 70% | 1018.4 hPa | 0 mm | - | - | - |
| 1777306615 | 27.22° C | 72% | 1018.5 hPa | 0 mm | - | - | - |
| 1777306310 | 27.22° C | 77% | 1018.7 hPa | 0 mm | - | - | - |
| 1777306006 | 27.22° C | 76% | 1018.6 hPa | 0 mm | - | - | - |
| 1777305703 | 27.22° C | 75% | 1018.8 hPa | 0 mm | - | - | - |
| 1777305398 | 27.22° C | 74% | 1018.7 hPa | 0 mm | - | - | - |
| 1777305093 | 27.22° C | 72% | 1018.8 hPa | 0 mm | - | - | - |
| 1777304788 | 27.78° C | 72% | 1019 hPa | 0 mm | - | - | - |
| 1777304486 | 27.22° C | 73% | 1019.2 hPa | 0 mm | - | - | - |
| 1777304183 | 27.22° C | 68% | 1019 hPa | 0 mm | - | - | - |
| 1777303880 | 27.78° C | 69% | 1019 hPa | 0 mm | - | - | - |
| 1777303577 | 27.78° C | 65% | 1019 hPa | 0 mm | - | - | - |
| 1777303275 | 27.78° C | 72% | 1019 hPa | 0 mm | - | - | - |
| 1777302972 | 27.78° C | 71% | 1018.8 hPa | 0 mm | - | - | - |
| 1777302668 | 27.78° C | 70% | 1019.1 hPa | 0 mm | - | - | - |
| 1777302367 | 27.78° C | 67% | 1019.2 hPa | 0 mm | - | - | - |
| 1777302065 | 27.78° C | 70% | 1019.1 hPa | 0 mm | - | - | - |
| 1777301762 | 27.22° C | 71% | 1019.4 hPa | 0 mm | - | - | - |
| 1777301459 | 27.22° C | 72% | 1019.4 hPa | 0 mm | - | - | - |
| 1777301156 | 26.67° C | 74% | 1019.3 hPa | 0 mm | - | - | - |
| 1777300853 | 26.67° C | 75% | 1019.3 hPa | 0 mm | - | - | - |
| 1777300551 | 26.67° C | 75% | 1019 hPa | 0 mm | - | - | - |
* Rain latest hour (hover to see other rain measurements)
** Current wind speed in m/s (hover to see current wind gust speed)